Find Starlink 38305

NORAD ID: 100372 Int'l Des: 2026-190 Owner: SPXS Country: US Constellation: starlink operational

当前视图

正在加载3D地球...

About Starlink 38305

Starlink 38305 (NORAD 100372) is a starlink constellation satellite launched Aug 19, 2026 by SPXS of US. with a mass of 575.00 kg.

即将过境

Passes for default location (London). Set your location on the main map for personalized predictions.

高度历史

Loading altitude history...

两行轨道根数

1 A0372U 26190B 26254.59180734 .00149698 00000-0 98665-3 0 9990
2 A0372 97.2785 108.5079 0004889 126.2938 233.8779 15.75186630 4973
Epoch: Sep 11, 2026 • Age: 9 hours

当前状态

高度 359.3 km
远地点 / 近地点 N/A
速度 7.69 km/s
星下点 -39.59°S, 49.45°W
发射日期 Aug 19, 2026
运行时间 23 days
类型 internet

技术详情

分类 Payload
质量 575.00 kg
干质量 530.00 kg
总质量 575.00 kg
长度 0.30 m
直径 4.10 m
跨度 29.00 m
形状 Box + pan
制造商 SPXS
平台类型 Starlink V2MO
阶段状态 In Orbit
所有者/国家 SPXS/US

Most Searched